Regional Weather Roundup
Issued by NWS

Home | Current Version | Previous Version | Graphics & Text | Print | Product List | Glossary On
Versions: 1 2 3 4 5 6 7 8 9 10 11 12 13 14 15 16 17 18 19 20 21 22 23 24 25 26 27 28 29 30 31 32 33 34 35 36 37 38 39 40 41 42 43 44 45 46 47 48 49 50
000
ASUS43 KMPX 011101
RWRMN
WEATHER ROUNDUP FOR MINNESOTA
NATIONAL WEATHER SERVICE TWIN CITIES/CHANHASSEN MN
600 AM CDT WED JUL 01 2015


NOTE: "FAIR" INDICATES FEW OR NO CLOUDS BELOW 12,000 FEET WITH NO
SIGNIFICANT WEATHER AND/OR OBSTRUCTIONS TO VISIBILITY. N/A MEANS
CURRENT SKY AND/OR WEATHER CONDITIONS ARE NOT AVAILABLE.

MNZ060>063-068>070-011200-
   Twin Cities Metro

CITY           SKY/WX    TMP DP  RH WIND       PRES   REMARKS
TWIN CITIES    CLOUDY    59  49  69 E9        29.98R
ST PAUL        MOCLDY    58  49  72 E6        29.98S
CRYSTAL        MOCLDY    61  47  59 E6        29.97R
BLAINE         CLOUDY    61  50  67 E3        29.98S
LAKEVILLE      PTCLDY    54  52  94 CALM      29.97S
EDEN PRAIRIE   CLOUDY    59  50  72 E6        29.96R
SOUTH ST PAUL  MOCLDY    59  48  67 SE3       29.98S
LAKE ELMO      FAIR      54  50  87 E5        29.99S
$$
MNZ001>005-007-008-013>017-022>024-027-028-011200-
   Northwest Minnesota

CITY           SKY/WX    TMP DP  RH WIND       PRES   REMARKS
BEMIDJI        MOCLDY    54  52  94 CALM      29.97R
HALLOCK        FOG       54  52  94 SE3       29.93S VSB 1/4
ROSEAU         PTCLDY    55  50  82 CALM      29.96S
WARROAD        CLEAR     55  52  88 CALM      29.96S
THIEF RVR FALL PTCLDY    55  52  88 E3        29.95S
CROOKSTON      CLEAR     57  54  88 E7        29.94S
FOSSTON        PTCLDY    54  48  82 CALM      29.96R
DETROIT LAKES  MOCLDY    63  59  88 SE5       29.96R
MOORHEAD       PTCLDY    63  61  94 CALM      29.94R
PARK RAPIDS    PTCLDY    60  55  83 SE6       29.97R
MAHNOMEN       FAIR      60  57  89 SE5       29.94S
$$
MNZ006-009>011-018-025>026-011200-
   North Central Minnesota

CITY           SKY/WX    TMP DP  RH WIND       PRES   REMARKS
BAUDETTE       CLEAR     50  49  96 SE3       29.96S
FLAG ISLAND    CLEAR     63  55  77 CALM      29.95S
INTL FALLS     CLEAR     44  42  93 CALM      29.97S
WASKISH        CLEAR     52  52 100 CALM      29.97R
BIG FORK         N/A     48  46  93 CALM      29.99R FOG
LONGVILLE      PTCLDY    55  54  94 CALM      29.98R
GRAND RAPIDS   PTCLDY    48  46  93 SE3       30.00R
CRANE LAKE     PTCLDY    43  41  93 CALM      30.01R
COOK           PTCLDY    45  45 100 CALM      30.01R
WALKER         FAIR      60  55  86 S5        29.96S
$$
MNZ012-019>021-037-011200-
   Northeast Minnesota

CITY           SKY/WX    TMP DP  RH WIND       PRES   REMARKS
DULUTH         PTCLDY    49  46  90 CALM      30.01R
ELY            PTCLDY    43  41  93 CALM      30.01R
HIBBING        PTCLDY    43  41  93 CALM      30.01R
EVELETH        PTCLDY    43  41  93 CALM      30.02R
DULUTH HARBOR  PTCLDY    54  52  94 CALM      30.02R
SILVER BAY     PTCLDY    41  39  93 CALM      30.00R
GRAND MARAIS     N/A     46  43  89 NE6       30.01R
G MARAIS ARPRT CLEAR     39  36  87 NW3       30.02R
$$
MNZ029>031-032-039>041-046>048-054>057-064-011200-
   West Central Minnesota

CITY           SKY/WX    TMP DP  RH WIND       PRES   REMARKS
FERGUS FALLS   DRIZZLE   63  63 100 S9        29.95S
WHEATON        LGT RAIN  61  59  94 E9        29.94F
MORRIS         LGT RAIN  63  59  88 SE8       29.95S
ALEXANDRIA     RAIN      61  59  93 S5        29.99R
ELBOW LAKE     DRIZZLE   62  60  95 SE8       29.96S
WADENA           N/A     61  57  88 CALM      29.97R
GLENWOOD       DRIZZLE   61  57  88 SE3       29.99R
APPLETON       LGT RAIN  63  57  82 E6        29.94F
BENSON         RAIN      63  55  77 CALM      29.97R
ORTONVILLE     RAIN      63  59  88 E8        29.93F
MADISON        LGT RAIN  63  59  88 E7        29.93S
WILLMAR        FAIR      63  57  82 E3        29.98S
$$
MNZ033>034-036-042>043-049>051-058-059-011200-
   Central Minnesota

CITY           SKY/WX    TMP DP  RH WIND       PRES   REMARKS
ST CLOUD       CLOUDY    59  53  80 E3        29.98R
SAUK CENTRE    RAIN      61  57  86 CALM      29.98R
PAYNESVILLE    RAIN      59  54  83 E7        29.98R
AITKIN         PTCLDY    52  45  76 CALM      29.98R
PINE RIVER     PTCLDY    55  54  94 CALM      30.01S
BRAINERD       MOCLDY    56  53  90 SE5       29.99R
STAPLES          N/A     59  55  88 SE3       29.98R
LONG PRAIRIE   CLOUDY    61  57  88 S3        29.98S
LITTLE FALLS   CLOUDY    57  52  82 CALM      29.98S
LITCHFIELD     CLOUDY    63  54  72 SE7       29.98S
BUFFALO        CLOUDY    60  50  70 CALM      29.99R
MAPLE LAKE     CLOUDY    62  53  72 SE3       29.99R
$$
MNZ037-044-045-052-053-011200-
   East Central Minnesota

CITY           SKY/WX    TMP DP  RH WIND       PRES   REMARKS
PRINCETON      CLOUDY    59  52  77 CALM      29.99R
MORA           MOCLDY    52  50  93 CALM      30.02R
CAMBRIDGE      CLOUDY    57  48  72 CALM      29.98R
RUSH CITY      MOCLDY    53  50  89 CALM      30.00S
MOOSE LAKE     MOCLDY    48  48 100 NE3       29.99S
HINCKLEY       FAIR      50  50 100 CALM      30.00S
CLOQUET        PTCLDY    46  45  93 CALM      30.01R FOG
MCGREGOR       MOCLDY    50  48  93 E3        30.00S
$$
MNZ071>073-080-081-089-090-097-098-011200-
   Southwest Minnesota

CITY           SKY/WX    TMP DP  RH WIND       PRES   REMARKS
MONTEVIDEO     CLOUDY    61  59  94 SE5       29.95R
GRANITE FALLS  CLOUDY    61  58  88 E5        29.96R
CANBY          DRIZZLE   61  59  94 E3        29.94R
MARSHALL       MOCLDY    61  55  82 E10       29.92S
REDWOOD FALLS  CLOUDY    61  57  87 E6        29.94F
OLIVIA         MOCLDY    59  52  77 E7        29.95S
PIPESTONE      MOCLDY    63  61  94 SE6       29.91S FOG
WINDOM         MOCLDY    59  55  88 E7        29.94S
WORTHINGTON    CLOUDY    61  55  82 E3        29.93S
JACKSON        PTCLDY    59  55  88 E7        29.94S
TRACY          MOCLDY    60  59  95 E5        29.93F
SLAYTON        CLOUDY    60  59  95 CALM      29.94S
$$
MNZ065>067-074>077-082>085-091>093-011200-
   South Central Minnesota

CITY           SKY/WX    TMP DP  RH WIND       PRES   REMARKS
MANKATO        CLOUDY    61  52  72 SE7       29.95R
NEW ULM        PTCLDY    59  54  82 CALM      29.96R
ST JAMES       CLEAR     57  55  94 NE3       29.96R
FAIRMONT       CLEAR     57  50  77 E7        29.93S
GLENCOE        CLOUDY    59  55  88 E5        29.97R
FARIBAULT      PTCLDY    55  52  88 E5        29.96F
OWATONNA       PTCLDY    55  52  88 E8        29.96S
WASECA         PTCLDY    55  52  88 E8        29.96S
ALBERT LEA     PTCLDY    57  54  88 E6        29.95S
$$
MNZ078>079-086>088-094>096-011200-
   Southeast Minnesota

CITY           SKY/WX    TMP DP  RH WIND       PRES   REMARKS
ROCHESTER      PTCLDY    53  49  86 NE6       29.98R
RED WING       MOCLDY    55  48  76 E5        29.97F
STANTON        PTCLDY    55  52  88 E3        29.96S
DODGE CENTER   PTCLDY    54  52  94 E7        29.96F
WINONA         CLOUDY    55  52  88 CALM      29.98S
AUSTIN         PTCLDY    54  52  94 E7        29.95S
PRESTON        PTCLDY    51  49  92 NE3       29.98S
$$
ABBREVIATIONS USED IN REMARKS
   TC - TEMPERATURES IN CELSIUS
  WCI - WIND CHILL INDEX
   HX - HEAT INDEX
  VSB - VISIBILITY
$$


USA.gov is the U.S. government's official web portal to all federal, state and local government web resources and services.